Volver al catálogo

SZ-20 MODULE

ActivoCienciaVLEO
NORAD 67481·PAYLOAD·🇨🇳 China

Lanzado Apr 24, 2025 desde Jiuquan Satellite Launch Center

Loading…

Próximos Pases (próximas 24 horas)

TLE

ActualizadoSource: Space-Track

Época: Sep 13, 2026, 23:58 UTC

1 67481U 25082C   26256.99890277  .00030178  00000-0  20981-3 0  9997
2 67481  41.4749 127.3898 0015564 285.9867  73.9262 15.73556318307206

Sigue SZ-20 MODULE en tiempo real con AllMySat

Download on the App Store